Time,TemperatureF,DewpointF,PressureIn,WindDirection,WindDirectionDegrees,WindSpeedMPH,WindSpeedGustMPH,Humidity,HourlyPrecipIn,Conditions,Clouds,dailyrainin,SoftwareType,DateUTC
2013-01-07 00:09:00,42.9,30.0,32.21,NW,313,4.0,11.0,61,0.00,,,0.01,weatherlink.com 1.10,2013-01-07 02:09:00,
2013-01-07 00:26:00,42.8,30.0,32.21,WNW,300,7.0,14.0,61,0.00,,,0.01,weatherlink.com 1.10,2013-01-07 02:26:00,
2013-01-07 00:42:00,42.5,30.0,32.21,NW,306,5.0,6.0,61,0.00,,,0.01,weatherlink.com 1.10,2013-01-07 02:42:00,
2013-01-07 00:58:00,41.9,30.0,32.21,NNW,332,7.0,8.0,62,0.00,,,0.01,weatherlink.com 1.10,2013-01-07 02:58:00,
2013-01-07 01:15:00,42.0,30.0,32.21,WNW,286,8.0,10.0,62,0.00,,,0.01,weatherlink.com 1.10,2013-01-07 03:15:00,
2013-01-07 01:31:00,41.0,30.0,32.21,WNW,292,3.0,9.0,64,0.00,,,0.01,weatherlink.com 1.10,2013-01-07 03:31:00,
2013-01-07 01:47:00,42.4,30.0,32.21,NW,313,5.0,13.0,62,0.00,,,0.01,weatherlink.com 1.10,2013-01-07 03:47:00,
2013-01-07 02:04:00,42.6,30.0,32.21,NNW,333,0.0,4.0,62,0.00,,,0.01,weatherlink.com 1.10,2013-01-07 04:04:00,
2013-01-07 02:20:00,43.1,31.0,32.21,NW,306,1.0,7.0,62,0.00,,,0.01,weatherlink.com 1.10,2013-01-07 04:20:00,
2013-01-07 02:36:00,42.5,30.0,32.21,NNW,330,0.0,2.0,62,0.00,,,0.01,weatherlink.com 1.10,2013-01-07 04:36:00,
2013-01-07 02:53:00,41.7,30.0,32.21,NW,309,0.0,2.0,64,0.00,,,0.00,weatherlink.com 1.10,2013-01-07 04:53:00,
2013-01-07 03:15:00,41.6,31.0,32.21,NW,319,1.0,7.0,65,0.00,,,0.00,weatherlink.com 1.10,2013-01-07 05:15:00,
2013-01-07 03:31:00,41.8,31.0,32.21,NW,315,5.0,7.0,65,0.00,,,0.00,weatherlink.com 1.10,2013-01-07 05:31:00,
2013-01-07 04:04:00,38.7,29.0,32.21,NNE,28,2.0,3.0,68,0.00,,,0.00,weatherlink.com 1.10,2013-01-07 06:04:00,
2013-01-07 04:21:00,36.4,28.0,32.21,NNW,333,1.0,4.0,72,0.00,,,0.00,weatherlink.com 1.10,2013-01-07 06:21:00,
2013-01-07 04:37:00,34.4,28.0,32.21,NNW,330,0.0,4.0,78,0.00,,,0.00,weatherlink.com 1.10,2013-01-07 06:37:00,
2013-01-07 04:53:00,33.3,28.0,32.21,NE,56,0.0,4.0,81,0.00,,,0.00,weatherlink.com 1.10,2013-01-07 06:53:00,
2013-01-07 05:10:00,33.1,28.0,32.21,WNW,286,0.0,2.0,80,0.00,,,0.00,weatherlink.com 1.10,2013-01-07 07:10:00,
2013-01-07 05:26:00,32.9,28.0,32.21,WNW,286,3.0,4.0,82,0.00,,,0.00,weatherlink.com 1.10,2013-01-07 07:26:00,
2013-01-07 05:42:00,33.8,29.0,32.21,WNW,284,6.0,6.0,81,0.00,,,0.00,weatherlink.com 1.10,2013-01-07 07:42:00,
2013-01-07 05:59:00,38.8,30.0,32.21,NW,323,0.0,7.0,70,0.00,,,0.00,weatherlink.com 1.10,2013-01-07 07:59:00,
2013-01-07 06:15:00,35.9,28.0,32.21,WNW,294,6.0,6.0,74,0.00,,,0.00,weatherlink.com 1.10,2013-01-07 08:15:00,
2013-01-07 06:31:00,37.7,29.0,32.21,WNW,296,4.0,9.0,72,0.00,,,0.00,weatherlink.com 1.10,2013-01-07 08:31:00,
2013-01-07 06:48:00,37.0,28.0,32.21,NW,315,2.0,4.0,71,0.00,,,0.00,weatherlink.com 1.10,2013-01-07 08:48:00,
2013-01-07 07:04:00,36.5,28.0,32.21,NW,309,0.0,4.0,72,0.00,,,0.00,weatherlink.com 1.10,2013-01-07 09:04:00,
2013-01-07 07:21:00,33.2,27.0,32.21,NW,309,0.0,2.0,77,0.00,,,0.00,weatherlink.com 1.10,2013-01-07 09:21:00,
2013-01-07 07:37:00,35.1,28.0,32.21,NW,310,3.0,4.0,76,0.00,,,0.00,weatherlink.com 1.10,2013-01-07 09:37:00,
2013-01-07 07:53:00,30.9,26.0,32.21,NW,310,0.0,0.0,81,0.00,,,0.00,weatherlink.com 1.10,2013-01-07 09:53:00,
2013-01-07 08:10:00,30.5,26.0,32.21,NW,310,0.0,2.0,84,0.00,,,0.00,weatherlink.com 1.10,2013-01-07 10:10:00,
2013-01-07 08:26:00,34.5,27.0,32.21,NW,310,3.0,4.0,75,0.00,,,0.00,weatherlink.com 1.10,2013-01-07 10:26:00,
2013-01-07 08:42:00,28.8,24.0,32.21,NW,310,0.0,2.0,82,0.00,,,0.00,weatherlink.com 1.10,2013-01-07 10:42:00,
2013-01-07 08:58:00,28.3,25.0,32.21,NW,310,0.0,2.0,86,0.00,,,0.00,weatherlink.com 1.10,2013-01-07 10:58:00,
2013-01-07 09:15:00,27.9,25.0,32.21,NW,310,1.0,3.0,87,0.00,,,0.00,weatherlink.com 1.10,2013-01-07 11:15:00,
2013-01-07 09:31:00,27.7,25.0,32.21,NNW,331,0.0,2.0,88,0.00,,,0.00,weatherlink.com 1.10,2013-01-07 11:31:00,
2013-01-07 09:48:00,26.3,23.0,32.21,NNW,331,0.0,3.0,88,0.00,,,0.00,weatherlink.com 1.10,2013-01-07 11:48:00,
2013-01-07 10:04:00,26.2,23.0,32.21,NW,323,2.0,4.0,89,0.00,,,0.00,weatherlink.com 1.10,2013-01-07 12:04:00,
2013-01-07 10:21:00,27.0,24.0,32.21,NW,323,0.0,4.0,90,0.00,,,0.00,weatherlink.com 1.10,2013-01-07 12:21:00,
2013-01-07 10:37:00,25.9,23.0,32.21,NW,323,0.0,3.0,90,0.00,,,0.00,weatherlink.com 1.10,2013-01-07 12:37:00,
2013-01-07 10:53:00,25.5,23.0,32.21,NW,323,1.0,3.0,90,0.00,,,0.00,weatherlink.com 1.10,2013-01-07 12:53:00,
2013-01-07 11:10:00,25.9,24.0,32.21,NW,323,3.0,3.0,91,0.00,,,0.00,weatherlink.com 1.10,2013-01-07 13:10:00,
2013-01-07 11:26:00,27.0,25.0,32.21,NW,323,0.0,1.0,91,0.00,,,0.00,weatherlink.com 1.10,2013-01-07 13:26:00,
2013-01-07 11:42:00,29.2,27.0,32.21,NW,323,0.0,3.0,91,0.00,,,0.00,weatherlink.com 1.10,2013-01-07 13:42:00,
2013-01-07 11:59:00,31.6,29.0,32.21,NW,323,0.0,2.0,90,0.00,,,0.00,weatherlink.com 1.10,2013-01-07 13:59:00,
2013-01-07 12:15:00,34.7,32.0,32.21,NW,323,0.0,1.0,88,0.00,,,0.00,weatherlink.com 1.10,2013-01-07 14:15:00,
2013-01-07 12:32:00,37.7,33.0,32.21,NW,323,0.0,1.0,84,0.00,,,0.00,weatherlink.com 1.10,2013-01-07 14:32:00,
2013-01-07 12:48:00,39.6,32.0,32.21,NW,323,0.0,2.0,74,0.00,,,0.00,weatherlink.com 1.10,2013-01-07 14:48:00,
2013-01-07 13:05:00,41.0,31.0,32.21,SE,132,2.0,4.0,67,0.00,,,0.00,weatherlink.com 1.10,2013-01-07 15:05:00,
2013-01-07 13:21:00,41.9,31.0,32.21,SE,142,2.0,5.0,65,0.00,,,0.00,weatherlink.com 1.10,2013-01-07 15:21:00,
2013-01-07 13:37:00,42.6,30.0,32.21,East,82,5.0,7.0,62,0.00,,,0.00,weatherlink.com 1.10,2013-01-07 15:37:00,
2013-01-07 13:53:00,43.0,30.0,32.21,ESE,117,4.0,6.0,60,0.00,,,0.00,weatherlink.com 1.10,2013-01-07 15:53:00,
2013-01-07 14:10:00,44.1,30.0,32.21,SE,145,2.0,7.0,58,0.00,,,0.00,weatherlink.com 1.10,2013-01-07 16:10:00,
2013-01-07 14:26:00,44.5,31.0,32.21,ESE,107,0.0,5.0,59,0.00,,,0.00,weatherlink.com 1.10,2013-01-07 16:26:00,
2013-01-07 14:43:00,44.8,30.0,32.21,ESE,103,3.0,7.0,56,0.00,,,0.00,weatherlink.com 1.10,2013-01-07 16:43:00,
2013-01-07 14:59:00,45.3,30.0,32.21,NE,56,1.0,5.0,54,0.00,,,0.00,weatherlink.com 1.10,2013-01-07 16:59:00,
2013-01-07 15:16:00,45.9,31.0,32.21,WSW,242,0.0,5.0,55,0.00,,,0.00,weatherlink.com 1.10,2013-01-07 17:16:00,
2013-01-07 15:32:00,46.5,30.0,32.21,SW,217,2.0,5.0,52,0.00,,,0.00,weatherlink.com 1.10,2013-01-07 17:32:00,
2013-01-07 15:49:00,47.7,31.0,32.21,SE,130,1.0,5.0,53,0.00,,,0.00,weatherlink.com 1.10,2013-01-07 17:49:00,
2013-01-07 16:05:00,47.4,30.0,32.21,ESE,123,0.0,7.0,50,0.00,,,0.00,weatherlink.com 1.10,2013-01-07 18:05:00,
2013-01-07 16:38:00,48.4,30.0,32.21,SE,125,1.0,7.0,49,0.00,,,0.00,weatherlink.com 1.10,2013-01-07 18:38:00,
2013-01-07 16:54:00,49.2,30.0,32.21,WSW,252,1.0,8.0,48,0.00,,,0.00,weatherlink.com 1.10,2013-01-07 18:54:00,
2013-01-07 17:10:00,48.9,30.0,32.21,SE,140,2.0,7.0,48,0.00,,,0.00,weatherlink.com 1.10,2013-01-07 19:10:00,
2013-01-07 17:27:00,49.1,30.0,32.21,ENE,60,4.0,8.0,48,0.00,,,0.00,weatherlink.com 1.10,2013-01-07 19:27:00,
2013-01-07 17:43:00,49.3,30.0,32.21,East,90,0.0,8.0,47,0.00,,,0.00,weatherlink.com 1.10,2013-01-07 19:43:00,
2013-01-07 17:59:00,49.6,30.0,32.21,ESE,110,1.0,7.0,47,0.00,,,0.00,weatherlink.com 1.10,2013-01-07 19:59:00,
2013-01-07 18:16:00,49.2,30.0,32.21,ENE,65,7.0,7.0,47,0.00,,,0.00,weatherlink.com 1.10,2013-01-07 20:16:00,
2013-01-07 18:32:00,49.5,31.0,32.21,ESE,115,3.0,7.0,48,0.00,,,0.00,weatherlink.com 1.10,2013-01-07 20:32:00,
2013-01-07 18:49:00,49.7,30.0,32.21,SE,126,0.0,7.0,47,0.00,,,0.00,weatherlink.com 1.10,2013-01-07 20:49:00,
2013-01-07 19:05:00,49.4,30.0,32.21,SE,127,0.0,4.0,47,0.00,,,0.00,weatherlink.com 1.10,2013-01-07 21:05:00,
2013-01-07 19:22:00,49.2,30.0,32.21,SSE,153,3.0,5.0,48,0.00,,,0.00,weatherlink.com 1.10,2013-01-07 21:22:00,
2013-01-07 19:38:00,48.6,30.0,32.21,SSE,164,0.0,7.0,49,0.00,,,0.00,weatherlink.com 1.10,2013-01-07 21:38:00,
2013-01-07 19:54:00,47.9,30.0,32.21,SSE,163,2.0,3.0,50,0.00,,,0.00,weatherlink.com 1.10,2013-01-07 21:54:00,
2013-01-07 20:11:00,47.0,30.0,32.21,SSE,163,0.0,3.0,51,0.00,,,0.00,weatherlink.com 1.10,2013-01-07 22:11:00,
2013-01-07 20:27:00,45.8,30.0,32.21,SSE,163,0.0,2.0,53,0.00,,,0.00,weatherlink.com 1.10,2013-01-07 22:27:00,
2013-01-07 20:43:00,44.4,29.0,32.21,SSE,163,0.0,2.0,55,0.00,,,0.00,weatherlink.com 1.10,2013-01-07 22:43:00,
2013-01-07 21:00:00,42.8,29.0,32.21,SSE,163,0.0,0.0,58,0.00,,,0.00,weatherlink.com 1.10,2013-01-07 23:00:00,
2013-01-07 21:16:00,41.2,29.0,32.21,SSE,163,0.0,1.0,61,0.00,,,0.00,weatherlink.com 1.10,2013-01-07 23:16:00,
2013-01-07 21:33:00,39.3,29.0,32.21,SSE,163,0.0,0.0,65,0.00,,,0.00,weatherlink.com 1.10,2013-01-07 23:33:00,
2013-01-07 21:49:00,37.7,28.0,32.21,SSE,163,0.0,0.0,69,0.00,,,0.00,weatherlink.com 1.10,2013-01-07 23:49:00,
2013-01-07 22:06:00,36.3,28.0,32.21,SSE,163,0.0,0.0,72,0.00,,,0.00,weatherlink.com 1.10,2013-01-08 00:06:00,
2013-01-07 22:22:00,35.2,28.0,32.21,SSE,163,0.0,0.0,74,0.00,,,0.00,weatherlink.com 1.10,2013-01-08 00:22:00,
2013-01-07 22:39:00,34.7,28.0,32.21,SSE,163,1.0,3.0,75,0.00,,,0.00,weatherlink.com 1.10,2013-01-08 00:39:00,
2013-01-07 22:55:00,33.7,27.0,32.21,SSE,163,0.0,1.0,77,0.00,,,0.00,weatherlink.com 1.10,2013-01-08 00:55:00,
2013-01-07 23:11:00,33.2,27.0,32.21,SSE,163,0.0,2.0,78,0.00,,,0.00,weatherlink.com 1.10,2013-01-08 01:11:00,
2013-01-07 23:28:00,32.3,27.0,32.21,SSE,163,2.0,3.0,80,0.00,,,0.00,weatherlink.com 1.10,2013-01-08 01:28:00,
2013-01-07 23:44:00,31.9,27.0,32.21,SSE,163,0.0,0.0,81,0.00,,,0.00,weatherlink.com 1.10,2013-01-08 01:44:00,